| time (UTC) | temp C | wind direction | speed KPH | gust KPH | rain 1hr cm | rain 24hr cm | rain mn cm | humidity % | barometer mb |
| 20260509022010 | 5 | 88 | 0.0 | 0.0 | 0.00 | 0.00 | 0.00 | 89 | 1018.9 |
| 20260509021009 | 6 | 88 | 0.0 | 0.0 | 0.00 | 0.00 | 0.00 | 89 | 1018.8 |
| 20260509020010 | 6 | 88 | 0.0 | 0.0 | 0.00 | 0.00 | 0.00 | 89 | 1018.9 |
| 20260509015010 | 6 | 88 | 0.0 | 0.0 | 0.00 | 0.00 | 0.00 | 89 | 1018.8 |
| 20260509014014 | 6 | 88 | 0.0 | 0.0 | 0.00 | 0.00 | 0.00 | 89 | 1018.7 |
| 20260509013013 | 6 | 88 | 0.0 | 0.0 | 0.00 | 0.00 | 0.00 | 89 | 1018.7 |
| 20260509012013 | 6 | 88 | 0.0 | 0.0 | 0.00 | 0.00 | 0.00 | 89 | 1018.7 |
| 20260509011013 | 6 | 88 | 0.0 | 0.0 | 0.00 | 0.00 | 0.00 | 87 | 1018.8 |
| 20260509010013 | 6 | 88 | 0.0 | 0.0 | 0.00 | 0.00 | 0.00 | 86 | 1018.8 |
| 20260509005013 | 6 | 88 | 0.0 | 0.0 | 0.00 | 0.00 | 0.00 | 85 | 1018.8 |
| 20260509004013 | 6 | 88 | 0.0 | 0.0 | 0.00 | 0.00 | 0.00 | 85 | 1018.7 |
| 20260509003013 | 6 | 88 | 0.0 | 0.0 | 0.00 | 0.00 | 0.00 | 85 | 1018.9 |
| 20260509002013 | 6 | 88 | 0.0 | 0.0 | 0.00 | 0.00 | 0.00 | 85 | 1018.8 |
| 20260509001013 | 6 | 88 | 0.0 | 0.0 | 0.00 | 0.00 | 0.00 | 85 | 1018.8 |
| 20260509000013 | 6 | 88 | 0.0 | 0.0 | 0.00 | 0.00 | 0.00 | 83 | 1018.8 |
| 20260508235013 | 6 | 88 | 0.0 | 0.0 | 0.00 | 0.00 | 0.00 | 80 | 1018.6 |
| 20260508233013 | 7 | 88 | 0.0 | 0.0 | 0.00 | 0.00 | 0.00 | 79 | 1018.9 |
| 20260508232012 | 7 | 88 | 0.0 | 0.0 | 0.00 | 0.00 | 0.00 | 78 | 1018.9 |
| 20260508231013 | 7 | 88 | 0.0 | 0.0 | 0.00 | 0.00 | 0.00 | 77 | 1019.0 |
| 20260508230012 | 7 | 88 | 0.0 | 0.0 | 0.00 | 0.00 | 0.00 | 77 | 1019.0 |
| 20260508225012 | 7 | 88 | 0.0 | 0.0 | 0.00 | 0.00 | 0.00 | 75 | 1019.0 |
| 20260508224012 | 8 | 88 | 0.0 | 0.0 | 0.00 | 0.00 | 0.00 | 75 | 1019.0 |
| 20260508223012 | 8 | 88 | 0.0 | 0.0 | 0.00 | 0.00 | 0.00 | 74 | 1019.1 |
| 20260508222012 | 8 | 88 | 0.0 | 3.2 | 0.00 | 0.00 | 0.00 | 74 | 1019.0 |
| 20260508221012 | 8 | 88 | 0.0 | 3.2 | 0.00 | 0.00 | 0.00 | 73 | 1019.0 |
| 20260508220012 | 8 | 88 | 0.0 | 0.0 | 0.00 | 0.00 | 0.00 | 72 | 1019.1 |
| 20260508215012 | 8 | 88 | 0.0 | 3.2 | 0.00 | 0.00 | 0.00 | 72 | 1018.9 |
| 20260508214012 | 9 | 88 | 1.6 | 3.2 | 0.00 | 0.00 | 0.00 | 71 | 1018.9 |
| 20260508213012 | 9 | 88 | 1.6 | 4.8 | 0.00 | 0.00 | 0.00 | 71 | 1019.0 |
| 20260508212012 | 9 | 88 | 0.0 | 3.2 | 0.00 | 0.00 | 0.00 | 71 | 1018.9 |
| 20260508211012 | 9 | 88 | 0.0 | 3.2 | 0.00 | 0.00 | 0.00 | 70 | 1018.9 |
| 20260508205012 | 10 | 88 | 0.0 | 3.2 | 0.00 | 0.00 | 0.00 | 69 | 1018.8 |
| 20260508204012 | 10 | 88 | 0.0 | 3.2 | 0.00 | 0.00 | 0.00 | 68 | 1018.8 |
| 20260508203011 | 10 | 88 | 0.0 | 1.6 | 0.00 | 0.00 | 0.00 | 67 | 1018.7 |
| 20260508201012 | 11 | 89 | 1.6 | 4.8 | 0.00 | 0.00 | 0.00 | 66 | 1018.6 |
| 20260508200011 | 11 | 90 | 1.6 | 4.8 | 0.00 | 0.00 | 0.00 | 65 | 1018.6 |
| 20260508195011 | 11 | 17 | 1.6 | 4.8 | 0.00 | 0.00 | 0.00 | 64 | 1018.6 |
| 20260508194011 | 12 | 47 | 0.0 | 4.8 | 0.00 | 0.00 | 0.00 | 63 | 1018.5 |
| 20260508193022 | 12 | 48 | 0.0 | 4.8 | 0.00 | 0.00 | 0.00 | 61 | 1018.4 |
| 20260508192011 | 12 | 48 | 1.6 | 4.8 | 0.00 | 0.00 | 0.00 | 60 | 1018.3 |
| 20260508191011 | 13 | 29 | 3.2 | 11.3 | 0.00 | 0.00 | 0.00 | 58 | 1018.2 |
| 20260508190011 | 13 | 56 | 3.2 | 11.3 | 0.00 | 0.00 | 0.00 | 58 | 1017.9 |
| 20260508185011 | 13 | 31 | 3.2 | 12.9 | 0.00 | 0.00 | 0.00 | 57 | 1017.8 |
| 20260508184011 | 14 | 32 | 4.8 | 9.7 | 0.00 | 0.00 | 0.00 | 56 | 1017.8 |
| 20260508183012 | 14 | 46 | 4.8 | 11.3 | 0.00 | 0.00 | 0.00 | 55 | 1017.5 |
| 20260508182011 | 15 | 33 | 4.8 | 16.1 | 0.00 | 0.00 | 0.00 | 54 | 1017.5 |
| 20260508181011 | 15 | 49 | 6.4 | 14.5 | 0.00 | 0.00 | 0.00 | 54 | 1017.4 |
| 20260508180011 | 15 | 42 | 4.8 | 12.9 | 0.00 | 0.00 | 0.00 | 53 | 1017.2 |
| 20260508175011 | 15 | 42 | 4.8 | 12.9 | 0.00 | 0.00 | 0.00 | 53 | 1017.2 |
| 20260508174011 | 15 | 65 | 6.4 | 11.3 | 0.00 | 0.00 | 0.00 | 53 | 1017.2 |
| 20260508173011 | 16 | 344 | 4.8 | 11.3 | 0.00 | 0.00 | 0.00 | 53 | 1017.1 |
| 20260508172010 | 16 | 326 | 4.8 | 12.9 | 0.00 | 0.00 | 0.00 | 52 | 1017.2 |
| 20260508171011 | 16 | 331 | 6.4 | 14.5 | 0.00 | 0.00 | 0.00 | 52 | 1017.2 |
| 20260508170011 | 16 | 325 | 4.8 | 12.9 | 0.00 | 0.00 | 0.00 | 51 | 1017.1 |
| 20260508165010 | 16 | 336 | 6.4 | 14.5 | 0.00 | 0.00 | 0.00 | 51 | 1017.1 |
| 20260508163010 | 16 | 324 | 4.8 | 9.7 | 0.00 | 0.00 | 0.00 | 52 | 1017.1 |
| 20260508162011 | 17 | 334 | 3.2 | 8.0 | 0.00 | 0.00 | 0.00 | 52 | 1017.0 |
| 20260508161010 | 16 | 323 | 4.8 | 11.3 | 0.00 | 0.00 | 0.00 | 52 | 1017.0 |
| 20260508160011 | 17 | 338 | 4.8 | 12.9 | 0.00 | 0.00 | 0.00 | 50 | 1017.0 |
| 20260508154011 | 17 | 314 | 6.4 | 14.5 | 0.00 | 0.00 | 0.00 | 50 | 1016.9 |
| 20260508153010 | 16 | 330 | 3.2 | 9.7 | 0.00 | 0.00 | 0.00 | 51 | 1016.9 |
| 20260508152010 | 16 | 329 | 4.8 | 12.9 | 0.00 | 0.00 | 0.00 | 51 | 1017.0 |
| 20260508151010 | 16 | 329 | 4.8 | 12.9 | 0.00 | 0.00 | 0.00 | 51 | 1017.0 |
| 20260508150010 | 16 | 319 | 4.8 | 9.7 | 0.00 | 0.00 | 0.00 | 50 | 1017.1 |
| 20260508145010 | 16 | 339 | 1.6 | 8.0 | 0.00 | 0.00 | 0.00 | 51 | 1017.1 |
| 20260508144012 | 16 | 36 | 3.2 | 8.0 | 0.00 | 0.00 | 0.00 | 53 | 1017.1 |
| 20260508143011 | 16 | 329 | 3.2 | 8.0 | 0.00 | 0.00 | 0.00 | 51 | 1017.2 |
| 20260508141013 | 16 | 40 | 3.2 | 14.5 | 0.00 | 0.00 | 0.00 | 51 | 1017.4 |
| 20260508140013 | 16 | 323 | 3.2 | 12.9 | 0.00 | 0.00 | 0.00 | 49 | 1017.5 |
| 20260508135013 | 17 | 246 | 3.2 | 9.7 | 0.00 | 0.00 | 0.00 | 50 | 1017.6 |
| 20260508134013 | 18 | 63 | 6.4 | 16.1 | 0.00 | 0.00 | 0.00 | 49 | 1017.7 |
| 20260508133013 | 17 | 265 | 4.8 | 14.5 | 0.00 | 0.00 | 0.00 | 51 | 1017.7 |
| 20260508132013 | 17 | 344 | 4.8 | 14.5 | 0.00 | 0.00 | 0.00 | 50 | 1017.7 |
| 20260508131013 | 16 | 355 | 4.8 | 12.9 | 0.00 | 0.00 | 0.00 | 52 | 1017.7 |
| 20260508125013 | 16 | 360 | 4.8 | 14.5 | 0.00 | 0.00 | 0.00 | 53 | 1018.0 |
| 20260508124013 | 16 | 11 | 1.6 | 9.7 | 0.00 | 0.00 | 0.00 | 52 | 1018.0 |
| 20260508123013 | 15 | 298 | 4.8 | 9.7 | 0.00 | 0.00 | 0.00 | 53 | 1018.0 |
| 20260508121012 | 15 | 284 | 3.2 | 9.7 | 0.00 | 0.00 | 0.00 | 52 | 1018.0 |
| 20260508120012 | 15 | 52 | 3.2 | 9.7 | 0.00 | 0.00 | 0.00 | 54 | 1018.0 |
| 20260508115013 | 15 | 309 | 1.6 | 12.9 | 0.00 | 0.00 | 0.00 | 53 | 1018.0 |
| 20260508114012 | 16 | 28 | 4.8 | 14.5 | 0.00 | 0.00 | 0.00 | 52 | 1018.0 |
| 20260508113012 | 16 | 350 | 4.8 | 11.3 | 0.00 | 0.00 | 0.00 | 52 | 1018.0 |
| 20260508112012 | 16 | 45 | 3.2 | 11.3 | 0.00 | 0.00 | 0.00 | 54 | 1018.2 |
| 20260508111012 | 16 | 330 | 4.8 | 11.3 | 0.00 | 0.00 | 0.00 | 57 | 1018.2 |
| 20260508104012 | 15 | 69 | 3.2 | 8.0 | 0.00 | 0.00 | 0.00 | 56 | 1018.5 |
| 20260508103013 | 15 | 138 | 3.2 | 9.7 | 0.00 | 0.00 | 0.00 | 61 | 1018.3 |
| 20260508102012 | 14 | 271 | 1.6 | 6.4 | 0.00 | 0.00 | 0.00 | 64 | 1018.4 |
| 20260508101012 | 13 | 327 | 1.6 | 6.4 | 0.00 | 0.00 | 0.00 | 64 | 1018.5 |
| 20260508100012 | 13 | 327 | 1.6 | 6.4 | 0.00 | 0.00 | 0.00 | 63 | 1018.5 |
| 20260508095012 | 13 | 325 | 1.6 | 6.4 | 0.00 | 0.00 | 0.00 | 67 | 1018.5 |
| 20260508094012 | 13 | 330 | 1.6 | 8.0 | 0.00 | 0.00 | 0.00 | 64 | 1018.6 |
| 20260508093012 | 14 | 328 | 1.6 | 8.0 | 0.00 | 0.00 | 0.00 | 64 | 1018.6 |
| 20260508092012 | 13 | 302 | 1.6 | 8.0 | 0.00 | 0.00 | 0.00 | 65 | 1018.7 |
| 20260508091011 | 13 | 100 | 3.2 | 9.7 | 0.00 | 0.00 | 0.00 | 65 | 1018.7 |
| 20260508090011 | 13 | 34 | 1.6 | 12.9 | 0.00 | 0.00 | 0.00 | 70 | 1018.7 |
| 20260508085012 | 13 | 327 | 3.2 | 11.3 | 0.00 | 0.00 | 0.00 | 69 | 1018.6 |
| 20260508084011 | 12 | 64 | 4.8 | 12.9 | 0.00 | 0.00 | 0.00 | 68 | 1018.6 |
| 20260508083011 | 12 | 86 | 1.6 | 8.0 | 0.00 | 0.00 | 0.00 | 72 | 1018.7 |
| 20260508082012 | 11 | 53 | 3.2 | 8.0 | 0.00 | 0.00 | 0.00 | 72 | 1018.8 |
| 20260508081012 | 11 | 32 | 3.2 | 6.4 | 0.00 | 0.00 | 0.00 | 73 | 1018.9 |
| 20260508074012 | 11 | 338 | 6.4 | 8.0 | 0.00 | 0.00 | 0.00 | 78 | 1019.0 |
| 20260508073012 | 11 | 346 | 1.6 | 4.8 | 0.00 | 0.00 | 0.00 | 78 | 1019.0 |
| 20260508071011 | 10 | 342 | 0.0 | 6.4 | 0.00 | 0.00 | 0.00 | 78 | 1018.8 |
| 20260508070011 | 10 | 334 | 0.0 | 4.8 | 0.00 | 0.00 | 0.00 | 79 | 1018.8 |
| 20260508065011 | 10 | 332 | 0.0 | 3.2 | 0.00 | 0.00 | 0.00 | 81 | 1018.6 |
| 20260508064011 | 10 | 332 | 0.0 | 3.2 | 0.00 | 0.00 | 0.00 | 82 | 1018.6 |
| 20260508063012 | 9 | 331 | 0.0 | 3.2 | 0.00 | 0.00 | 0.00 | 83 | 1018.4 |
| 20260508062011 | 9 | 331 | 1.6 | 4.8 | 0.00 | 0.00 | 0.00 | 84 | 1018.3 |
| 20260508061011 | 9 | 332 | 1.6 | 8.0 | 0.00 | 0.00 | 0.00 | 84 | 1018.1 |
| 20260508060011 | 8 | 297 | 1.6 | 8.0 | 0.00 | 0.00 | 0.00 | 85 | 1018.0 |
| 20260508055011 | 8 | 280 | 1.6 | 6.4 | 0.00 | 0.00 | 0.00 | 85 | 1018.0 |
| 20260508054011 | 8 | 274 | 0.0 | 4.8 | 0.00 | 0.00 | 0.00 | 86 | 1017.9 |
| 20260508053011 | 8 | 273 | 1.6 | 6.4 | 0.00 | 0.00 | 0.00 | 89 | 1017.8 |
| 20260508052011 | 8 | 292 | 3.2 | 6.4 | 0.00 | 0.00 | 0.00 | 90 | 1017.8 |
| 20260508051011 | 8 | 274 | 1.6 | 4.8 | 0.00 | 0.00 | 0.00 | 91 | 1017.8 |
| 20260508050011 | 8 | 274 | 0.0 | 1.6 | 0.00 | 0.00 | 0.00 | 91 | 1017.6 |
| 20260508045011 | 8 | 274 | 1.6 | 4.8 | 0.00 | 0.00 | 0.00 | 91 | 1017.6 |
| 20260508044011 | 8 | 281 | 3.2 | 6.4 | 0.00 | 0.00 | 0.00 | 91 | 1017.5 |
| 20260508043011 | 8 | 285 | 1.6 | 6.4 | 0.00 | 0.00 | 0.00 | 91 | 1017.5 |
| 20260508042011 | 8 | 286 | 0.0 | 3.2 | 0.00 | 0.00 | 0.00 | 91 | 1017.5 |
| 20260508041011 | 8 | 286 | 1.6 | 6.4 | 0.00 | 0.00 | 0.00 | 91 | 1017.5 |
| 20260508040011 | 8 | 286 | 1.6 | 4.8 | 0.00 | 0.00 | 0.00 | 91 | 1017.3 |
| 20260508035011 | 8 | 286 | 3.2 | 6.4 | 0.00 | 0.00 | 0.00 | 91 | 1017.3 |
| 20260508034010 | 8 | 269 | 1.6 | 6.4 | 0.00 | 0.00 | 0.00 | 91 | 1017.2 |
| 20260508033010 | 8 | 254 | 1.6 | 8.0 | 0.00 | 0.00 | 0.00 | 91 | 1017.2 |
| 20260508032010 | 8 | 257 | 0.0 | 3.2 | 0.00 | 0.00 | 0.00 | 91 | 1017.1 |
| 20260508031011 | 8 | 257 | 0.0 | 1.6 | 0.00 | 0.00 | 0.00 | 92 | 1017.1 |
| 20260508030010 | 8 | 257 | 0.0 | 3.2 | 0.00 | 0.00 | 0.00 | 92 | 1017.2 |
| 20260508025010 | 8 | 257 | 0.0 | 3.2 | 0.00 | 0.00 | 0.00 | 91 | 1017.2 |
| 20260508024010 | 7 | 257 | 0.0 | 3.2 | 0.00 | 0.00 | 0.00 | 90 | 1017.2 |
| 20260508023011 | 7 | 257 | 0.0 | 4.8 | 0.00 | 0.00 | 0.00 | 90 | 1017.2 |